Regional Weather Roundup
Issued by NWS

Home | Current Version | Previous Version | Text Only | Print | Product List | Glossary On
Versions: 1 2 3 4 5 6 7 8 9 10 11 12 13 14 15 16 17 18 19 20 21 22 23 24 25 26 27 28 29 30 31 32 33 34 35 36 37 38 39 40 41 42 43 44 45 46 47 48 49 50
000
ASUS43 KLOT 280510
RWRIL

ILLINOIS REGIONAL WEATHER ROUNDUP
NATIONAL WEATHER SERVICE CHICAGO/ROMEOVILLE IL
1100 PM CST THU NOV 27 2014

NOTE: "FAIR" INDICATES FEW OR NO CLOUDS BELOW 12,000 FEET WITH NO
SIGNIFICANT WEATHER AND/OR OBSTRUCTIONS TO VISIBILITY.

* THESE STATIONS ARE NOT UNDER NWS QUALITY CONTROL. THEY ALSO MAY NOT
  REPORT WEATHER SUCH AS PRECIPITATION OR FOG.

ILZ001-002-007-009-015-016-024-280600-
NORTHWEST ILLINOIS

CITY           SKY/WX    TMP DP  RH WIND       PRES   REMARKS
MOLINE         CLOUDY    13   6  74 SW6       30.41S WCI   4
STERLING*      PTCLDY    10   3  72 CALM      30.37F
SAVANNA*       CLOUDY    14   6  69 SW5       30.39R WCI   6
$$

ILZ003-004-008-010-011-017-018-280600-
NORTH CENTRAL ILLINOIS

CITY           SKY/WX    TMP DP  RH WIND       PRES   REMARKS
ROCKFORD       CLOUDY    11   5  77 S3        30.39F
FREEPORT*      PTCLDY    11   5  77 CALM      30.37F
ROCHELLE*      PTCLDY     8   5  87 CALM      30.38F
DE KALB*       PTCLDY    10   4  75 W3        30.37F
PERU*          PTCLDY    13   6  74 CALM      30.39F
$$

ILZ005-006-012>014-019>023-280600-
NORTHEAST ILLINOIS

CITY           SKY/WX    TMP DP  RH WIND       PRES   REMARKS
CHICAGO-OHARE  PTCLDY    18  12  77 CALM      30.38F
CHICAGO-MIDWAY MOCLDY    21  10  62 CALM      30.40F
AURORA         PTCLDY    11   5  77 CALM      30.38F
LANSING*       PTCLDY    19  11  70 W3        30.41S
JOLIET*        PTCLDY    14  10  86 CALM      30.40F
WAUKEGAN       PTCLDY    11   8  88 CALM      30.38S
DUPAGE AIRPORT PTCLDY    14  10  84 CALM      30.37F
KANKAKEE*      PTCLDY   N/A N/A N/A W5        30.41F
WHEELING       CLEAR     17  11  77 CALM      30.41F
MORRIS*        PTCLDY    12  10  93 CALM      30.39F
ROMEOVILLE*    PTCLDY    14  10  87 W3        30.39F
NORTHERLY ISL    N/A     20  10  65 NW5         N/A  WCI  14
$$

LMZ740>746-280600-
SOUTHERN LAKE MICHIGAN

STATION/POSITION SKY/WX   TEMP    WIND        PRES    VSBY  WAVE
                          AIR SEA DIR/SP/G                  HT/PER
                          (F)     (DEG/KT/KT) (MB)    (MI)  (FT/S)
SOUTHERN BUOY              23 42  300/  6/ 10 1029.3F         4/ 7
WAUKEGAN HARBOR            16     300/  3/  5   N/A
HARRISON CRIB              20     260/  9/ 11   N/A
BURNHAM HARBOR             20     250/  4/  6   N/A
CALUMET HARBOR             20     270/  3/  5 1028.1F
MICHIGAN CITY              23     210/  9/ 11   N/A
$$

ILZ025>027-034>036-040-047-049-050-058-095>099-280600-
WEST-CENTRAL ILLINOIS

CITY           SKY/WX    TMP DP  RH WIND       PRES   REMARKS
QUINCY         CLOUDY    18   9  68 E7        30.40F WCI   9
GALESBURG*     CLOUDY    12   7  83 CALM      30.41S
MACOMB*        CLOUDY    13   5  72 CALM      30.44S
JACKSONVILLE*  CLOUDY    19  10  69 E3        30.43S
PITTSFIELD*    CLOUDY    21  14  75 E3        30.42F
$$

ILZ028>032-037-038-041>044-048-051>054-059>061-280600-
CENTRAL ILLINOIS

CITY           SKY/WX    TMP DP  RH WIND       PRES   REMARKS
PONTIAC        PTCLDY    14  10  83 CALM      30.41F
BLOOMINGTON    PTCLDY    13  10  87 CALM      30.39F
DECATUR        PTCLDY    15   8  73 CALM      30.42F
PEORIA         MOCLDY    14   8  77 SW7       30.43S WCI   4
LACON*         PTCLDY    11   8  84 CALM      30.42R
LINCOLN*       PTCLDY    16   8  72 SW3       30.46S
SPRINGFIELD    CLOUDY    16  12  84 CALM      30.44F
TAYLORVILLE    MOCLDY    18   9  68 CALM      30.44S
$$

ILZ033-039-045-046-055>057-062-063-280600-
EAST-CENTRAL ILLINOIS

CITY           SKY/WX    TMP DP  RH WIND       PRES   REMARKS
CHAMPAIGN      CLEAR     14  10  84 N3        30.40F
DANVILLE*      CLEAR     17  13  84 NW6       30.39F WCI   9
RANTOUL*       CLEAR     18  10  70 N6        30.40F WCI  10
MATTOON        CLEAR     16  10  77 CALM      30.41F
PARIS*         CLEAR     17  14  88 CALM      30.42F
$$

ILZ079-100>102-280600-
SOUTHWEST ILLINOIS

CITY           SKY/WX    TMP DP  RH WIND       PRES   REMARKS
ALTON          CLOUDY    22  17  79 E5        30.44F WCI  16
BELLEVILLE     CLOUDY    23  20  87 E3        30.45R
CAHOKIA*       CLOUDY    26  19  74 E6        30.45S WCI  19
SPARTA*        CLOUDY    24  21  87 SE3       30.45F
$$

ILZ064>066-069>071-074>076-080>082-084>086-088>090-092>094-280600-
SOUTH-CENTRAL ILLINOIS

CITY           SKY/WX    TMP DP  RH WIND       PRES   REMARKS
CARBONDALE     PTCLDY    26  22  84 SE3       30.46S
CAIRO*         PTCLDY    29  26  88 CALM      30.46F FOG
EFFINGHAM*     PTCLDY    12   8  84 CALM      30.44F FOG
MARION         PTCLDY    25  23  93 CALM      30.47R
MT. VERNON     PTCLDY    19  16  86 CALM      30.46R
CENTRALIA*     PTCLDY    19  17  92 CALM      30.44S
SALEM*           N/A     21  18  89 CALM      30.45R
METROPOLIS*    CLEAR     25  25 100 CALM        N/A  FOG
$$

ILZ067-068-072-073-078-083-087-091-280600-
SOUTHEAST ILLINOIS

CITY           SKY/WX    TMP DP  RH WIND       PRES   REMARKS
LAWRENCEVILLE  PTCLDY    21  19  92 CALM      30.46S
FLORA*         PTCLDY    15  14  96 CALM      30.46S FOG
FAIRFIELD*     PTCLDY    18  16  95 W3        30.46R
HARRISBURG*    CLEAR     24  24 100 CALM      30.47S FOG
ROBINSON*      CLEAR     19  16  88 CALM      30.46F
CARMI*         FOG       20  20 100 CALM      30.46S VSB 1/4
$$

ABBREVIATIONS USED IN REMARKS
   TC - TEMPERATURE IN CELSIUS
  WCI - WIND CHILL INDEX
   HX - HEAT INDEX
  VSB - VISIBILITY
$$



USA.gov is the U.S. government's official web portal to all federal, state and local government web resources and services.